Regional Weather Roundup
Issued by NWS

Home | Current Version | Previous Version | Text Only | Print | Product List | Glossary Off
Versions: 1 2 3 4 5 6 7 8 9 10 11 12 13 14 15 16 17 18 19 20 21 22 23 24 25 26 27 28 29 30 31 32 33 34 35 36 37 38 39 40 41 42 43 44 45 46 47 48 49 50

000
ASUS45 KTFX 301619
RWRMT
MONTANA HOURLY WEATHER ROUNDUP
NATIONAL WEATHER SERVICE GREAT FALLS MT
1019 AM MDT THU OCT 30 2014

NOTE: "FAIR" INDICATES FEW OR NO CLOUDS BELOW 12000 FEET WITH NO
SIGNIFICANT WEATHER AND/OR OBSTRUCTIONS TO VISIBILITY.

* THESE STATIONS ARE NOT UNDER NWS QUALITY CONTROL. THEY DO NOT
   REPORT WEATHER SUCH AS PRECIPITATION OR FOG.

MTZ001>007-043-301700-
WEST OF THE DIVIDE
CITY           SKY/WX    TMP DP  RH WIND       PRES   REMARKS
KALISPELL      FOG       39  39 100 SW5       30.24F VSB 1/2  WCI  35
MISSOULA       FOG       39  39 100 CALM      30.26S
BUTTE          CLOUDY    36  30  79 CALM      30.29S
MULLAN PASS    FOG       36  36 100 SE12G18   30.18F VSB M1/4 WCI  28
* DEER LODGE   CLOUDY    37  32  82 N/A        N/A
* ESSEX        N/A       38  36  93 N/A        N/A
* HAMILTON APT CLOUDY    39  36  89 N/A        N/A
* LIBBY APT    PTSUNNY   43  41  93 N/A        N/A
* LINCOLN      N/A       30  29  96 NW1        N/A
* LOOKOUT PASS N/A       38  38 100 S8G14      N/A   WCI  32
* POLSON       N/A       41  41 100 SE1        N/A
* RONAN APT    CLOUDY    39  39 100 N/A        N/A
* SEELEY LAKE  N/A       31  30  96 N/A        N/A
* THOMP F APT  PTSUNNY   39  28  65 NE1        N/A
* YAAK HILL    N/A       43  41  93 NE1        N/A
$$

MTZ008-052>055-301700-
SOUTHWEST MONTANA
CITY           SKY/WX    TMP DP  RH WIND       PRES   REMARKS
BOZEMAN        CLOUDY    39  30  70 CALM      30.30S
DILLON         CLOUDY    39  30  70 CALM      30.29R
W YELLOWSTONE  PTSUNNY   32  28  85 CALM      30.37R
* ENNIS APT    PTSUNNY   45  30  56 SE5        N/A
* THREE FORKS  CLOUDY    36  36 100 N/A        N/A
* BOULDER HILL N/A       37  26  64 SW11       N/A   WCI  29
* RAYNOLDS PAS N/A       36  19  50 S9         N/A   WCI  29
* WHITEHALL    N/A       36  31  82 NE2        N/A
* WISE RIVER   N/A       31  29  92 SE4        N/A
$$

MTZ009>010-012-014-046-048-049-054-301700-
EAST SLOPES AND CENTRAL MONTANA
CITY           SKY/WX    TMP DP  RH WIND       PRES   REMARKS
CUT BANK       SUNNY     39  34  82 CALM      30.24S
GREAT FALLS    SUNNY     43  34  71 E3        30.25S
HELENA         PTSUNNY   43  36  76 N3        30.28S
MALMSTROM AFB  SUNNY     41  34  76 SE7       30.28R
* CONRAD       PTCLDY    32  30  92 N/A        N/A
* DEARBORN     N/A       34  32  92 N/A        N/A
* EAST GLACIER N/A       40  33  76 W3         N/A
* MONARCH      N/A       36  26  67 S3         N/A
* SAINT MARY   N/A       30  26  85 SE4        N/A
* SWEET GRASS  N/A       40  32  73 S8         N/A   WCI  35
* WHITE SULPH  N/A       35  28  76 NE2G10     N/A
$$

MTZ011-013-016-021-035-040-045-047-050-051-301700-
NORTH CENTRAL MONTANA
CITY           SKY/WX    TMP DP  RH WIND       PRES   REMARKS
HAVRE          FOG       30  30 100 E13       30.31R VSB M1/4 WCI  20
LEWISTOWN      SUNNY     43  30  60 E6        30.29S
* N BAR RANCH  SUNNY     43  30  60 CALM      30.31S
* FORT BENTON  SUNNY     39  32  76 CALM      30.29R
* MALTA APT    SUNNY     34  30  85 NE6        N/A   WCI  29
* CHESTER      N/A       33  30  89 NE3        N/A
* DENTON       N/A       43  32  65 SE3G8      N/A
* GEYSER       N/A       40  33  76 S8         N/A   WCI  35
* JUDITH GAP   N/A       40  31  70 SE5        N/A   WCI  36
* LOMA         N/A       37  33  85 N/A        N/A
$$

MTZ017>020-022>027-061-062-301700-
NORTHEAST MONTANA
CITY           SKY/WX    TMP DP  RH WIND       PRES   REMARKS
GLASGOW        CLOUDY    36  30  79 E8        30.38R WCI  30
GLENDIVE       CLOUDY    36  32  85 NE6       30.39R WCI  31
JORDAN         SUNNY     34  34 100 E9        30.35R WCI  27
SIDNEY         CLOUDY    36  30  79 CALM      30.41R
WOLF POINT     CLOUDY    37  30  76 E5        30.40R WCI  33
* BEAVER HILL  N/A       34  31  89 N1G6       N/A
* CIRCLE       N/A       34  33  96 NE3        N/A
* LINDSAY DVD  N/A       34  32  92 NE2        N/A
* NAVAJO       N/A       31  29  92 NE4        N/A
* PLENTYWOOD A N/A       34  30  85 NE7        N/A   WCI  28
* POPLAR APT   N/A       36  30  79 N/A        N/A
* SCOBEY APT   SUNNY     32  27  82 N7         N/A   WCI  25
$$

MTZ028>042-056>058-301700-
SOUTHCENTRAL AND SOUTHEAST MONTANA
CITY           SKY/WX    TMP DP  RH WIND       PRES   REMARKS
BAKER          FOG       34  32  92 NE7       30.35R WCI  28
BILLINGS       PTCLDY    41  27  58 SW12      30.33R
LIVINGSTON     CLOUDY    39  28  65 E3        30.30S
MILES CITY     SUNNY     37  34  89 NE15      30.35R WCI  28
* FORSYTH APT  SUNNY     43  32  65 N/A        N/A
* LAUREL APT   PTCLDY    43  25  49 N/A        N/A
* ROUNDUP APT  SUNNY     39  27  62 SW7        N/A   WCI  34
* ALZADA       N/A       46  33  61 W4         N/A
* HYSHAM       N/A       45  31  58 W6         N/A
* LAME DEER    N/A       45  32  60 W8         N/A
* REED POINT   N/A       32  31  96 N/A        N/A
* ROSCOE HILL  N/A       44  25  47 E4         N/A
$$

REGIONAL REPORTS...DAKOTAS
CITY           SKY/WX    TMP DP  RH WIND       PRES   REMARKS
WILLISTON      CLOUDY    37  32  82 N10       30.38R WCI  30
DICKINSON      FOG       36  34  92 N7        30.33R WCI  30
BEACH          N/A       34  34 100 NE5       30.37R WCI  29
CROSBY         CLOUDY    34  32  92 N10       30.40R WCI  26
TIOGA          FOG       34  34 100 NE8       30.40R WCI  27
BISMARCK       CLOUDY    34  30  85 N13       30.34R WCI  25
GRAND FORKS    CLOUDY    36  32  85 N22G29    30.28R WCI  25
FARGO          PTSUNNY   39  36  89 N18G25    30.22R WCI  30
BUFFALO SD     SUNNY     36  32  85 N12       30.27R WCI  28
RAPID CITY     SUNNY     54  36  51 N12       30.30R
$$

REGIONAL REPORTS...WYOMING/IDAHO/WASHINGTON
CITY           SKY/WX    TMP DP  RH WIND       PRES   REMARKS
GILLETTE       SUNNY     48  30  50 W9        30.34R
SHERIDAN       SUNNY     48  28  46 S5        30.33S
CODY           CLOUDY    45  34  65 CALM      30.33R
YELLOWSTONE LA PTSUNNY   34  30  85 CALM      30.40R
SALMON         PTCLDY    43  36  76 CALM      30.29R
MULLAN PASS    FOG       36  36 100 SE12G18   30.18S VSB M1/4 WCI  28
SAND POINT     CLOUDY    45  45 100 NE14      30.16F
SPOKANE        CLOUDY    46  45  96 NE8       30.11S
$$

REGIONAL REPORTS...ALBERTA
CITY           SKY/WX    TMP DP  RH WIND       PRES   REMARKS
CALGARY        FOG       27  25  92 S7        30.19F VSB 1 1/4 WCI  19
LETHBRIDGE     FOG       27  27 100 E7        30.25R VSB M1/4 WCI  19
MEDICINE HAT   FOG       32  32 100 E13       30.29S VSB 1/2  WCI  22
EDMONTON       FOG       30  30 100 SE16G22   30.20S WCI  19
WATERTON GATE  N/A       45  30  56 SW13G18    N/A
CARDSTON       N/A       36  32  85 SE5        N/A   WCI  32
MILK RIVER     N/A       34  28  79 NW1        N/A
$$

REGIONAL REPORTS...SASKATCHEWAN
CITY           SKY/WX    TMP DP  RH WIND       PRES   REMARKS
SWIFT CURRENT  CLOUDY    30  28  92 E12G18    30.36R WCI  20
MOOSE JAW      CLOUDY    32  30  92 E5        30.43R WCI  27
REGINA         CLOUDY    30  28  92 E10       30.44R WCI  21
VAL MARIE      N/A       34  30  85 E8         N/A   WCI  27
ASSINIBOIA     N/A       30  28  92 E7         N/A   WCI  23
CORONACH       N/A       32  28  85 NE8        N/A   WCI  25

$$




USA.gov is the U.S. government's official web portal to all federal, state and local government web resources and services.